KD9DOE Weather Reports


time (UTC)temp
C
wind
direction
speed
KPH
gust
KPH
rain 1hr
cm
rain 24hr
cm
rain mn
cm
humidity
%
barometer
mb
20260906151934 24 125 0.0 0.0 0.00 0.00 0.00 74 1020.6
20260906151430 24 85 0.0 0.0 0.00 0.00 0.00 74 1020.5
20260906150926 23 167 0.0 0.0 0.00 0.00 0.00 78 1020.5
20260906150421 22 149 1.6 1.6 0.00 0.00 0.00 78 1020.2
20260906145920 22 128 0.0 0.0 0.00 0.00 0.00 80 1020.4
20260906145419 22 140 0.0 0.0 0.00 0.00 0.00 81 1020.4
20260906144914 22 129 0.0 0.0 0.00 0.00 0.00 80 1020.4
20260906144409 22 169 0.0 0.0 0.00 0.00 0.00 82 1020.4
20260906143904 21 76 0.0 0.0 0.00 0.00 0.00 83 1020.4
20260906143400 21 51 0.0 0.0 0.00 0.00 0.00 83 1020.2
20260906142856 21 127 0.0 0.0 0.00 0.00 0.00 84 1020.3
20260906142356 21 66 0.0 1.6 0.00 0.00 0.00 84 1020.5
20260906141856 21 52 0.0 0.0 0.00 0.00 0.00 84 1020.5
20260906141350 20 46 0.0 0.0 0.00 0.00 0.00 85 1020.3
20260906140850 20 48 0.0 0.0 0.00 0.00 0.00 86 1020.4
20260906140344 20 4 3.2 3.2 0.00 0.00 0.00 85 1020.5
20260906135843 20 100 0.0 0.0 0.00 0.00 0.00 85 1020.6
20260906135343 20 16 3.2 3.2 0.00 0.00 0.00 85 1020.6
20260906134839 20 335 1.6 1.6 0.00 0.00 0.00 86 1020.4
20260906134339 20 14 1.6 1.6 0.00 0.00 0.00 86 1020.5
20260906133835 19 12 1.6 1.6 0.00 0.00 0.00 86 1020.6
20260906133330 20 15 1.6 1.6 0.00 0.00 0.00 86 1020.5
20260906132826 19 15 0.0 0.0 0.00 0.00 0.00 87 1020.4
20260906132321 19 15 0.0 0.0 0.00 0.00 0.00 87 1020.3
20260906131816 19 15 0.0 1.6 0.00 0.00 0.00 87 1020.4
20260906131311 18 15 0.0 0.0 0.00 0.00 0.00 88 1020.4
20260906130807 18 15 0.0 0.0 0.00 0.00 0.00 88 1020.4
20260906130307 18 63 0.0 1.6 0.00 0.00 0.00 89 1020.3
20260906125805 18 48 0.0 0.0 0.00 0.00 0.00 90 1020.3
20260906125306 18 9 3.2 4.8 0.00 0.00 0.00 92 1020.3
20260906124758 17 58 0.0 0.0 0.00 0.00 0.00 94 1020.5
20260906124254 17 59 0.0 1.6 0.00 0.00 0.00 95 1020.4
20260906123753 17 60 0.0 0.0 0.00 0.00 0.00 96 1020.3
20260906123248 17 59 0.0 0.0 0.00 0.00 0.00 97 1020.1
20260906122748 17 60 0.0 1.6 0.00 0.00 0.00 97 1020.3
20260906122243 17 60 0.0 0.0 0.00 0.00 0.00 97 1020.1
20260906121739 17 102 0.0 0.0 0.00 0.00 0.00 97 1020.1
20260906121236 16 102 0.0 0.0 0.00 0.00 0.00 97 1020.0
20260906120731 16 102 0.0 0.0 0.00 0.00 0.00 97 1019.9
20260906120228 16 102 0.0 0.0 0.00 0.00 0.00 97 1019.9
20260906115724 16 102 0.0 0.0 0.00 0.00 0.00 97 1019.9
20260906115224 16 102 0.0 0.0 0.00 0.00 0.00 97 1020.0
20260906114723 16 102 0.0 0.0 0.00 0.00 0.00 97 1020.1
20260906114218 16 102 0.0 0.0 0.00 0.00 0.00 97 1020.0
20260906113713 16 102 0.0 0.0 0.00 0.00 0.00 97 1019.9
20260906113213 16 102 0.0 0.0 0.00 0.00 0.00 97 1019.8
20260906112712 16 102 0.0 0.0 0.00 0.00 0.00 97 1019.7
20260906112210 16 102 0.0 0.0 0.00 0.00 0.00 97 1019.7
20260906111709 16 103 0.0 0.0 0.00 0.00 0.00 97 1019.6
20260906111203 16 103 0.0 0.0 0.00 0.00 0.00 97 1019.3
20260906110659 16 103 0.0 0.0 0.00 0.00 0.00 97 1019.1
20260906110154 16 103 0.0 0.0 0.00 0.00 0.00 97 1018.9
20260906105654 16 103 0.0 0.0 0.00 0.00 0.00 97 1018.8
20260906105150 16 103 0.0 0.0 0.00 0.00 0.00 96 1019.0
20260906104649 17 103 0.0 0.0 0.00 0.00 0.00 96 1019.0
20260906104149 17 103 0.0 0.0 0.00 0.00 0.00 97 1018.8
20260906103647 17 103 0.0 0.0 0.00 0.00 0.00 96 1019.0
20260906103142 17 103 0.0 0.0 0.00 0.00 0.00 96 1019.2
20260906102638 16 103 0.0 0.0 0.00 0.00 0.00 96 1018.9
20260906102137 17 103 0.0 0.0 0.00 0.00 0.00 96 1019.2
20260906101637 17 103 0.0 0.0 0.00 0.00 0.00 96 1019.1
20260906101137 17 103 0.0 0.0 0.00 0.00 0.00 96 1019.0
20260906100632 17 103 0.0 0.0 0.00 0.00 0.00 96 1018.9
20260906100128 17 103 0.0 0.0 0.00 0.00 0.00 96 1018.7
20260906095628 17 103 0.0 0.0 0.00 0.00 0.00 96 1019.0
20260906095123 17 103 0.0 0.0 0.00 0.00 0.00 96 1019.0
20260906094622 17 103 0.0 0.0 0.00 0.00 0.00 96 1019.1
20260906094118 17 103 0.0 0.0 0.00 0.00 0.00 96 1019.0
20260906093614 17 103 0.0 0.0 0.00 0.00 0.00 96 1019.1
20260906093114 17 103 0.0 0.0 0.00 0.00 0.00 96 1019.2
20260906092609 17 103 0.0 0.0 0.00 0.00 0.00 96 1018.9
20260906092104 17 103 0.0 0.0 0.00 0.00 0.00 96 1019.1
20260906091600 17 103 0.0 0.0 0.00 0.00 0.00 96 1019.0
20260906091057 17 103 0.0 0.0 0.00 0.00 0.00 96 1019.0
20260906090556 17 103 0.0 0.0 0.00 0.00 0.00 96 1019.0
20260906090056 17 103 0.0 0.0 0.00 0.00 0.00 96 1019.0
20260906085555 17 103 0.0 0.0 0.00 0.00 0.00 96 1019.1
20260906085050 17 103 0.0 0.0 0.00 0.00 0.00 95 1018.9
20260906084545 17 103 0.0 0.0 0.00 0.00 0.00 95 1018.9
20260906084043 17 103 0.0 0.0 0.00 0.00 0.00 95 1018.9
20260906083539 17 103 0.0 0.0 0.00 0.00 0.00 95 1018.8
20260906083039 17 103 0.0 0.0 0.00 0.00 0.00 95 1018.8
20260906082534 17 103 0.0 0.0 0.00 0.00 0.00 95 1018.7
20260906082030 17 103 0.0 0.0 0.00 0.00 0.00 95 1018.7
20260906081526 17 103 0.0 0.0 0.00 0.00 0.00 95 1018.8
20260906081021 17 103 0.0 0.0 0.00 0.00 0.00 95 1018.8
20260906080517 17 103 0.0 0.0 0.00 0.00 0.00 95 1018.4
20260906080014 17 103 0.0 0.0 0.00 0.00 0.00 95 1018.8
20260906075507 17 103 0.0 0.0 0.00 0.00 0.00 95 1018.8
20260906075002 17 103 0.0 0.0 0.00 0.00 0.00 95 1018.5
20260906074457 17 102 0.0 0.0 0.00 0.00 0.00 95 1018.6
20260906073955 17 103 0.0 0.0 0.00 0.00 0.00 95 1018.8
20260906073450 17 102 0.0 0.0 0.00 0.00 0.00 95 1018.8
20260906072947 17 102 0.0 0.0 0.00 0.00 0.00 95 1018.9
20260906072441 17 103 0.0 0.0 0.00 0.00 0.00 95 1018.7
20260906071937 17 103 0.0 0.0 0.00 0.00 0.00 95 1018.7
20260906071433 17 103 0.0 0.0 0.00 0.00 0.00 95 1019.0
20260906070929 17 103 0.0 0.0 0.00 0.00 0.00 94 1018.9
20260906070425 17 103 0.0 0.0 0.00 0.00 0.00 94 1018.8
20260906065921 17 102 0.0 0.0 0.00 0.00 0.00 94 1019.0
20260906065415 18 102 0.0 0.0 0.00 0.00 0.00 94 1019.1
20260906064910 18 102 0.0 0.0 0.00 0.00 0.00 94 1019.2
20260906064407 18 102 0.0 0.0 0.00 0.00 0.00 94 1019.0
20260906063907 18 102 0.0 0.0 0.00 0.00 0.00 94 1019.2
20260906063402 18 102 0.0 0.0 0.00 0.00 0.00 94 1019.1
20260906062857 18 102 0.0 0.0 0.00 0.00 0.00 94 1019.1
20260906062356 18 102 0.0 0.0 0.00 0.00 0.00 94 1019.2
20260906061851 18 102 0.0 0.0 0.00 0.00 0.00 94 1019.2
20260906061348 18 102 0.0 0.0 0.00 0.00 0.00 93 1019.3
20260906060842 18 102 0.0 0.0 0.00 0.00 0.00 93 1019.2
20260906060340 18 102 0.0 0.0 0.00 0.00 0.00 93 1019.1
20260906055836 18 102 0.0 0.0 0.00 0.00 0.00 94 1019.1
20260906055331 18 102 0.0 0.0 0.00 0.00 0.00 94 1018.9
20260906054826 18 102 0.0 0.0 0.00 0.00 0.00 94 1018.8
20260906054321 18 102 0.0 0.0 0.00 0.00 0.00 94 1018.8
20260906053818 18 102 0.0 0.0 0.00 0.00 0.00 94 1019.0
20260906053313 18 102 0.0 0.0 0.00 0.00 0.00 93 1018.9
20260906052808 18 102 0.0 0.0 0.00 0.00 0.00 93 1019.0
20260906052306 18 102 0.0 0.0 0.00 0.00 0.00 93 1018.9
20260906051802 18 102 0.0 0.0 0.00 0.00 0.00 93 1018.8
20260906051301 19 102 0.0 0.0 0.00 0.00 0.00 93 1018.8
20260906050756 19 102 0.0 0.0 0.00 0.00 0.00 93 1019.0
20260906050251 19 102 0.0 0.0 0.00 0.00 0.00 93 1019.1
20260906045750 19 102 0.0 0.0 0.00 0.00 0.00 92 1019.0
20260906045245 19 102 0.0 0.0 0.00 0.00 0.00 92 1018.8
20260906044741 19 102 0.0 0.0 0.00 0.00 0.00 92 1018.8
20260906044236 19 102 0.0 0.0 0.00 0.00 0.00 92 1018.6
20260906043732 20 102 0.0 0.0 0.00 0.00 0.00 91 1018.7
20260906043228 20 102 0.0 0.0 0.00 0.00 0.00 91 1018.7
20260906042727 20 102 0.0 0.0 0.00 0.00 0.00 91 1018.6
20260906042226 20 102 0.0 0.0 0.00 0.00 0.00 91 1018.6
20260906041722 20 102 0.0 0.0 0.00 0.00 0.00 91 1018.8
20260906041217 20 102 0.0 0.0 0.00 0.00 0.00 90 1018.6
20260906040713 20 102 0.0 0.0 0.00 0.00 0.00 89 1018.7
20260906040208 20 102 0.0 0.0 0.00 0.00 0.00 89 1018.6
20260906035703 20 102 0.0 0.0 0.00 0.00 0.00 89 1018.3
20260906035159 20 140 0.0 0.0 0.00 0.00 0.00 88 1018.3
20260906034653 20 108 0.0 0.0 0.00 0.00 0.00 89 1018.0
20260906034148 21 113 1.6 1.6 0.00 0.00 0.00 88 1017.9
20260906033644 21 130 0.0 0.0 0.00 0.00 0.00 88 1018.2
20260906033143 21 51 0.0 0.0 0.00 0.00 0.00 87 1018.3
20260906032640 21 51 0.0 0.0 0.00 0.00 0.00 87 1018.1
20260906032140 21 51 0.0 1.6 0.00 0.00 0.00 87 1018.2
20260906031635 21 51 1.6 1.6 0.00 0.00 0.00 86 1018.2
20260906031131 21 51 1.6 1.6 0.00 0.00 0.00 86 1018.1
20260906030630 21 47 0.0 1.6 0.00 0.00 0.00 86 1018.1
20260906030126 21 48 0.0 0.0 0.00 0.00 0.00 85 1018.1
20260906025625 22 47 0.0 0.0 0.00 0.00 0.00 85 1018.0
20260906025124 22 46 0.0 0.0 0.00 0.00 0.00 85 1018.1
20260906024619 22 46 0.0 0.0 0.00 0.00 0.00 85 1017.9
20260906024113 22 54 0.0 0.0 0.00 0.00 0.00 84 1017.8
20260906023604 22 42 0.0 0.0 0.00 0.00 0.00 84 1017.8
20260906023103 22 42 0.0 0.0 0.00 0.00 0.00 84 1017.8
20260906022559 22 41 3.2 3.2 0.00 0.00 0.00 83 1017.6
20260906022054 22 118 1.6 3.2 0.00 0.00 0.00 83 1017.6
20260906021550 22 340 0.0 0.0 0.00 0.00 0.00 84 1017.5
20260906021049 22 9 0.0 0.0 0.00 0.00 0.00 84 1017.4
20260906020548 22 145 1.6 1.6 0.00 0.00 0.00 84 1017.3
20260906020048 22 192 1.6 1.6 0.00 0.00 0.00 85 1017.1
20260906015547 22 335 0.0 0.0 0.00 0.00 0.00 85 1017.0
20260906015047 23 329 1.6 1.6 0.00 0.00 0.00 85 1016.6
20260906014542 23 2 0.0 0.0 0.00 0.00 0.00 85 1016.8
20260906014038 23 347 1.6 3.2 0.00 0.00 0.00 85 1016.6
20260906013533 23 187 1.6 3.2 0.00 0.00 0.00 84 1016.6
20260906013029 23 352 0.0 0.0 0.00 0.00 0.00 84 1016.7
20260906012524 23 354 1.6 1.6 0.00 0.00 0.00 84 1016.7
20260906012023 23 355 1.6 1.6 0.00 0.00 0.00 83 1016.6
20260906011519 23 359 1.6 1.6 0.00 0.00 0.00 83 1016.5
20260906011019 23 341 0.0 1.6 0.00 0.00 0.00 82 1016.5
20260906010514 23 28 1.6 1.6 0.00 0.00 0.00 82 1016.4
20260906010011 23 6 1.6 1.6 0.00 0.00 0.00 82 1016.2
20260906005510 23 46 1.6 3.2 0.00 0.00 0.00 82 1016.5
20260906005009 23 71 3.2 4.8 0.00 0.00 0.00 82 1016.7
20260906004509 23 88 0.0 0.0 0.00 0.00 0.00 81 1016.8
20260906004004 23 96 0.0 1.6 0.00 0.00 0.00 81 1016.7
20260906003459 23 348 3.2 3.2 0.00 0.00 0.00 80 1016.8
20260906002954 23 39 3.2 3.2 0.00 0.00 0.00 80 1016.9
20260906002455 23 342 3.2 3.2 0.00 0.00 0.00 80 1016.8
20260906001950 23 72 1.6 1.6 0.00 0.00 0.00 79 1016.8
20260906001446 24 64 1.6 3.2 0.00 0.00 0.00 79 1016.7
20260906000940 24 339 1.6 3.2 0.00 0.00 0.00 79 1016.8
20260906000436 24 34 1.6 1.6 0.00 0.00 0.00 78 1016.5
20260905235930 24 62 0.0 1.6 0.00 0.00 0.00 77 1016.6
20260905235430 24 47 0.0 0.0 0.00 0.00 0.00 77 1016.7
20260905234925 24 64 0.0 1.6 0.00 0.00 0.00 77 1016.7
20260905234420 25 48 1.6 1.6 0.00 0.00 0.00 76 1016.6
20260905233915 25 72 0.0 0.0 0.00 0.00 0.00 76 1016.5
20260905233410 25 63 1.6 1.6 0.00 0.00 0.00 75 1016.7
20260905232909 25 66 0.0 0.0 0.00 0.00 0.00 75 1016.4
20260905232405 25 37 0.0 1.6 0.00 0.00 0.00 73 1016.7
20260905231901 25 345 3.2 4.8 0.00 0.00 0.00 73 1016.7
20260905231356 25 70 1.6 3.2 0.00 0.00 0.00 73 1016.6
20260905230853 25 62 0.0 1.6 0.00 0.00 0.00 73 1016.7
20260905230350 25 50 0.0 0.0 0.00 0.00 0.00 73 1016.5
20260905225849 25 11 3.2 4.8 0.00 0.00 0.00 73 1016.8
20260905225344 25 137 0.0 0.0 0.00 0.00 0.00 73 1016.7
20260905224840 25 20 1.6 1.6 0.00 0.00 0.00 72 1016.6
20260905224336 25 72 3.2 4.8 0.00 0.00 0.00 71 1016.7
20260905223836 25 6 3.2 3.2 0.00 0.00 0.00 72 1016.5
20260905223334 25 6 4.8 6.4 0.00 0.00 0.00 71 1016.8
20260905222828 26 44 1.6 1.6 0.00 0.00 0.00 72 1016.6
20260905222327 26 34 0.0 0.0 0.00 0.00 0.00 73 1016.4
20260905221823 26 24 0.0 0.0 0.00 0.00 0.00 73 1016.7
20260905221320 26 7 1.6 3.2 0.00 0.00 0.00 73 1016.6
20260905220816 26 3 1.6 3.2 0.00 0.00 0.00 73 1016.4
20260905220312 26 354 0.0 1.6 0.00 0.00 0.00 73 1016.0
20260905215811 26 18 0.0 1.6 0.00 0.00 0.00 74 1016.2
20260905215307 26 347 1.6 1.6 0.00 0.00 0.00 73 1016.3
20260905214802 26 22 3.2 3.2 0.00 0.00 0.00 74 1016.4
20260905214258 26 65 0.0 0.0 0.00 0.00 0.00 75 1016.3
20260905213753 25 48 0.0 1.6 0.00 0.00 0.00 75 1016.7
20260905213249 25 61 0.0 0.0 0.00 0.00 0.00 76 1016.5
20260905212744 26 42 1.6 1.6 0.00 0.00 0.00 74 1016.5
20260905212243 26 52 0.0 0.0 0.00 0.00 0.00 73 1016.6
20260905211743 26 51 0.0 0.0 0.00 0.00 0.00 73 1016.5
20260905211238 26 49 0.0 1.6 0.00 0.00 0.00 73 1016.6
20260905210735 26 67 1.6 1.6 0.00 0.00 0.00 73 1016.5
20260905210234 26 130 1.6 1.6 0.00 0.00 0.00 72 1016.4
20260905205733 26 158 0.0 1.6 0.00 0.00 0.00 72 1016.6
20260905205229 26 24 4.8 4.8 0.00 0.00 0.00 70 1016.8
20260905204728 26 117 3.2 3.2 0.00 0.00 0.00 71 1016.7
20260905204224 26 58 1.6 1.6 0.00 0.00 0.00 71 1016.7
20260905203723 26 12 1.6 3.2 0.00 0.00 0.00 70 1016.7
20260905203219 26 34 1.6 1.6 0.00 0.00 0.00 70 1016.7
20260905202714 26 347 1.6 1.6 0.00 0.00 0.00 69 1016.6
20260905202209 27 8 3.2 3.2 0.00 0.00 0.00 67 1016.6
20260905201705 26 9 1.6 1.6 0.00 0.00 0.00 71 1016.5
20260905201205 26 8 1.6 3.2 0.00 0.00 0.00 71 1016.3
20260905200700 26 1 1.6 1.6 0.00 0.00 0.00 70 1016.5
20260905200155 26 356 3.2 3.2 0.00 0.00 0.00 72 1016.5
20260905195654 26 351 3.2 3.2 0.00 0.00 0.00 74 1016.8
20260905195149 25 313 6.4 6.4 0.00 0.00 0.00 74 1016.9
20260905194644 25 326 1.6 3.2 0.00 0.00 0.00 75 1016.7
20260905194144 25 5 4.8 6.4 0.00 0.00 0.00 74 1016.8
20260905193639 25 341 1.6 1.6 0.00 0.00 0.00 75 1016.9
20260905193139 26 38 3.2 4.8 0.00 0.00 0.00 75 1017.0
20260905192634 26 33 1.6 1.6 0.00 0.00 0.00 75 1016.8
20260905192131 26 69 1.6 3.2 0.00 0.00 0.00 75 1016.8
20260905191630 26 65 0.0 0.0 0.00 0.00 0.00 75 1016.9
20260905191128 26 25 3.2 4.8 0.00 0.00 0.00 74 1017.0
20260905190627 26 11 1.6 3.2 0.00 0.00 0.00 75 1016.9
20260905190126 26 3 4.8 4.8 0.00 0.00 0.00 74 1017.0
20260905185626 26 351 3.2 3.2 0.00 0.00 0.00 73 1016.8
20260905185126 26 166 1.6 1.6 0.00 0.00 0.00 73 1016.8
20260905184620 26 40 1.6 3.2 0.00 0.00 0.00 74 1016.8
20260905184119 26 96 3.2 3.2 0.00 0.00 0.00 74 1017.0
20260905183618 27 276 1.6 1.6 0.00 0.00 0.00 73 1016.8
20260905183114 27 81 1.6 1.6 0.00 0.00 0.00 73 1016.9
20260905182614 27 204 1.6 1.6 0.00 0.00 0.00 71 1016.9
20260905182113 27 112 0.0 0.0 0.00 0.00 0.00 71 1016.9
20260905181608 27 48 1.6 1.6 0.00 0.00 0.00 71 1016.9
20260905181107 27 85 1.6 3.2 0.00 0.00 0.00 71 1016.9
20260905180602 27 357 4.8 6.4 0.00 0.00 0.00 71 1017.0
20260905180057 26 1 3.2 3.2 0.00 0.00 0.00 74 1017.0
20260905175556 25 340 1.6 1.6 0.00 0.00 0.00 78 1017.0
20260905175052 25 338 3.2 4.8 0.00 0.00 0.00 78 1017.1
20260905174548 25 157 1.6 1.6 0.00 0.00 0.00 81 1017.3
20260905174043 24 52 0.0 0.0 0.00 0.00 0.00 83 1017.4
20260905173540 24 14 1.6 3.2 0.00 0.00 0.00 83 1017.3
20260905173035 23 70 0.0 0.0 0.00 0.00 0.00 83 1017.4
20260905172533 23 68 0.0 0.0 0.00 0.00 0.00 84 1017.4
20260905172029 23 64 3.2 3.2 0.00 0.00 0.00 83 1017.4
20260905171525 23 347 3.2 3.2 0.00 0.00 0.00 83 1017.4
20260905171021 23 342 3.2 3.2 0.00 0.00 0.00 83 1017.3
20260905170517 23 339 1.6 1.6 0.00 0.00 0.00 85 1017.4
20260905170012 23 351 3.2 4.8 0.00 0.00 0.00 84 1017.4
20260905165507 23 84 0.0 0.0 0.00 0.00 0.00 86 1017.0
20260905165002 23 34 1.6 3.2 0.00 0.00 0.00 86 1017.4
20260905164501 23 358 1.6 3.2 0.00 0.00 0.00 87 1017.6
20260905163956 23 3 3.2 3.2 0.00 0.00 0.00 87 1017.5
20260905163453 23 3 0.0 1.6 0.00 0.00 0.00 88 1017.5
20260905162948 23 8 1.6 3.2 0.00 0.00 0.00 87 1017.5
20260905162444 23 8 4.8 6.4 0.00 0.00 0.00 87 1017.5
20260905161938 23 19 1.6 1.6 0.00 0.00 0.00 87 1017.5
20260905161438 22 19 3.2 3.2 0.00 0.00 0.00 87 1017.5
20260905160936 22 19 3.2 3.2 0.00 0.00 0.00 87 1017.3
20260905160430 22 1 3.2 3.2 0.00 0.00 0.00 87 1017.5
20260905155929 22 23 0.0 1.6 0.00 0.00 0.00 87 1017.3
20260905155424 22 26 1.6 3.2 0.00 0.00 0.00 87 1017.3
20260905154923 22 351 3.2 4.8 0.00 0.00 0.00 87 1017.3
20260905154419 22 346 3.2 3.2 0.00 0.00 0.00 87 1017.3
20260905153914 23 95 0.0 0.0 0.00 0.00 0.00 88 1017.3
20260905153410 22 92 1.6 1.6 0.00 0.00 0.00 89 1017.1
20260905152910 22 61 0.0 1.6 0.00 0.00 0.00 88 1017.3
20260905152409 22 19 0.0 1.6 0.00 0.00 0.00 88 1017.1